Wetterdaten: Donnerstag, 01.06.2017
Datum Zeit Temp. Auen Feucht Auen Luftdruck Regen Richtung Richtung Windben
01.06.2017 00:00 18,7 C 86 % 1018,0 hPa 0,0 mm W 266 3,2 km/h (1 Bft)
01.06.2017 00:05 18,6 C 86 % 1018,0 hPa 0,0 mm W 266 1,6 km/h (1 Bft)
01.06.2017 00:10 18,3 C 86 % 1018,1 hPa 0,0 mm W 266 0,0 km/h (0 Bft)
01.06.2017 00:15 18,1 C 87 % 1018,1 hPa 0,0 mm W 266 1,6 km/h (1 Bft)
01.06.2017 00:20 18,1 C 87 % 1018,1 hPa 0,0 mm W 266 1,6 km/h (1 Bft)
01.06.2017 00:25 17,9 C 87 % 1018,1 hPa 0,0 mm W 266 3,2 km/h (1 Bft)
01.06.2017 00:30 18,0 C 87 % 1018,2 hPa 0,0 mm W 266 3,2 km/h (1 Bft)
01.06.2017 00:35 18,0 C 87 % 1018,1 hPa 0,0 mm W 266 4,8 km/h (1 Bft)
01.06.2017 00:40 18,0 C 87 % 1018,2 hPa 0,0 mm W 266 4,8 km/h (1 Bft)
01.06.2017 00:45 17,9 C 88 % 1018,2 hPa 0,0 mm W 266 3,2 km/h (1 Bft)
01.06.2017 00:50 17,7 C 88 % 1018,2 hPa 0,0 mm W 281 4,8 km/h (1 Bft)
01.06.2017 00:55 17,7 C 89 % 1018,2 hPa 0,0 mm W 281 3,2 km/h (1 Bft)
01.06.2017 01:00 17,8 C 88 % 1018,1 hPa 0,0 mm W 281 1,6 km/h (1 Bft)
01.06.2017 01:05 17,7 C 89 % 1018,1 hPa 0,0 mm W 281 1,6 km/h (1 Bft)
01.06.2017 01:10 17,5 C 89 % 1018,0 hPa 0,0 mm W 281 3,2 km/h (1 Bft)
01.06.2017 01:15 17,5 C 89 % 1018,0 hPa 0,0 mm W 281 3,2 km/h (1 Bft)
01.06.2017 01:20 17,5 C 89 % 1018,0 hPa 0,0 mm W 281 3,2 km/h (1 Bft)
01.06.2017 01:25 17,6 C 88 % 1018,0 hPa 0,0 mm W 281 3,2 km/h (1 Bft)
01.06.2017 01:30 17,6 C 88 % 1018,0 hPa 0,0 mm W 281 0,0 km/h (0 Bft)
01.06.2017 01:35 17,2 C 88 % 1018,0 hPa 0,0 mm W 281 0,0 km/h (0 Bft)
01.06.2017 01:40 16,8 C 89 % 1018,0 hPa 0,0 mm W 281 0,0 km/h (0 Bft)
01.06.2017 01:45 17,0 C 89 % 1018,0 hPa 0,0 mm W 281 3,2 km/h (1 Bft)
01.06.2017 01:50 17,0 C 89 % 1018,0 hPa 0,0 mm W 281 4,8 km/h (1 Bft)
01.06.2017 01:55 16,8 C 89 % 1018,1 hPa 0,0 mm W 281 0,0 km/h (0 Bft)
01.06.2017 02:00 16,7 C 90 % 1018,1 hPa 0,0 mm W 281 0,0 km/h (0 Bft)
01.06.2017 02:05 16,6 C 90 % 1018,1 hPa 0,0 mm W 281 0,0 km/h (0 Bft)
01.06.2017 02:10 16,4 C 90 % 1018,1 hPa 0,0 mm W 281 3,2 km/h (1 Bft)
01.06.2017 02:15 16,4 C 90 % 1018,0 hPa 0,0 mm W 281 1,6 km/h (1 Bft)
01.06.2017 02:20 16,4 C 91 % 1018,1 hPa 0,0 mm W 280 1,6 km/h (1 Bft)
01.06.2017 02:25 16,5 C 90 % 1018,1 hPa 0,0 mm W 280 3,2 km/h (1 Bft)
01.06.2017 02:30 16,6 C 90 % 1018,2 hPa 0,0 mm W 280 1,6 km/h (1 Bft)
01.06.2017 02:35 16,7 C 90 % 1018,2 hPa 0,0 mm W 280 3,2 km/h (1 Bft)
01.06.2017 02:40 16,8 C 90 % 1018,2 hPa 0,0 mm W 280 3,2 km/h (1 Bft)
01.06.2017 02:45 16,8 C 90 % 1018,1 hPa 0,0 mm W 280 0,0 km/h (0 Bft)
01.06.2017 02:50 16,8 C 90 % 1018,1 hPa 0,0 mm W 280 3,2 km/h (1 Bft)
01.06.2017 02:55 16,7 C 90 % 1018,1 hPa 0,0 mm W 280 3,2 km/h (1 Bft)
01.06.2017 03:00 16,7 C 90 % 1018,0 hPa 0,0 mm W 280 3,2 km/h (1 Bft)
01.06.2017 03:05 16,6 C 90 % 1018,0 hPa 0,0 mm W 280 3,2 km/h (1 Bft)
01.06.2017 03:10 16,6 C 90 % 1018,0 hPa 0,0 mm W 280 3,2 km/h (1 Bft)
01.06.2017 03:15 16,4 C 90 % 1018,0 hPa 0,0 mm W 280 3,2 km/h (1 Bft)
01.06.2017 03:20 16,5 C 91 % 1018,0 hPa 0,0 mm W 280 1,6 km/h (1 Bft)
01.06.2017 03:25 16,5 C 90 % 1018,0 hPa 0,0 mm W 280 1,6 km/h (1 Bft)
01.06.2017 03:30 16,4 C 90 % 1017,9 hPa 0,0 mm W 280 0,0 km/h (0 Bft)
01.06.2017 03:35 16,1 C 90 % 1017,9 hPa 0,0 mm W 280 0,0 km/h (0 Bft)
01.06.2017 03:40 16,0 C 91 % 1017,9 hPa 0,0 mm W 280 0,0 km/h (0 Bft)
01.06.2017 03:45 16,1 C 91 % 1017,8 hPa 0,0 mm W 280 0,0 km/h (0 Bft)
01.06.2017 03:50 15,7 C 91 % 1017,9 hPa 0,0 mm W 280 0,0 km/h (0 Bft)
01.06.2017 03:55 15,6 C 91 % 1017,9 hPa 0,0 mm W 280 1,6 km/h (1 Bft)
01.06.2017 04:00 15,7 C 91 % 1017,9 hPa 0,0 mm W 280 0,0 km/h (0 Bft)
01.06.2017 04:05 15,7 C 91 % 1017,9 hPa 0,0 mm W 280 0,0 km/h (0 Bft)
01.06.2017 04:10 15,6 C 91 % 1017,9 hPa 0,0 mm W 280 0,0 km/h (0 Bft)
01.06.2017 04:15 15,2 C 91 % 1018,0 hPa 0,0 mm W 280 0,0 km/h (0 Bft)
01.06.2017 04:20 15,1 C 91 % 1018,0 hPa 0,0 mm W 280 0,0 km/h (0 Bft)
01.06.2017 04:25 14,9 C 92 % 1018,0 hPa 0,0 mm W 280 0,0 km/h (0 Bft)
01.06.2017 04:30 14,9 C 92 % 1018,0 hPa 0,0 mm W 280 0,0 km/h (0 Bft)
01.06.2017 04:35 15,0 C 92 % 1018,0 hPa 0,0 mm W 280 0,0 km/h (0 Bft)
01.06.2017 04:40 15,0 C 92 % 1018,0 hPa 0,0 mm W 280 0,0 km/h (0 Bft)
01.06.2017 04:45 14,8 C 92 % 1018,1 hPa 0,0 mm W 280 0,0 km/h (0 Bft)
01.06.2017 04:50 14,8 C 92 % 1018,0 hPa 0,0 mm W 280 0,0 km/h (0 Bft)
01.06.2017 04:55 14,8 C 92 % 1018,0 hPa 0,0 mm W 280 0,0 km/h (0 Bft)
01.06.2017 05:00 14,9 C 92 % 1018,0 hPa 0,0 mm W 280 0,0 km/h (0 Bft)
01.06.2017 05:05 14,9 C 92 % 1018,0 hPa 0,0 mm W 280 0,0 km/h (0 Bft)
01.06.2017 05:10 14,9 C 92 % 1018,0 hPa 0,0 mm W 280 0,0 km/h (0 Bft)
01.06.2017 05:15 14,8 C 92 % 1018,0 hPa 0,0 mm W 280 0,0 km/h (0 Bft)
01.06.2017 05:20 14,9 C 92 % 1018,0 hPa 0,0 mm W 280 1,6 km/h (1 Bft)
01.06.2017 05:25 14,8 C 92 % 1018,0 hPa 0,0 mm W 280 0,0 km/h (0 Bft)
01.06.2017 05:30 14,8 C 92 % 1018,0 hPa 0,0 mm W 280 1,6 km/h (1 Bft)
01.06.2017 05:35 14,7 C 92 % 1018,1 hPa 0,0 mm W 280 1,6 km/h (1 Bft)
01.06.2017 05:40 14,7 C 92 % 1018,1 hPa 0,0 mm W 280 0,0 km/h (0 Bft)
01.06.2017 05:45 14,6 C 92 % 1018,2 hPa 0,0 mm W 280 1,6 km/h (1 Bft)
01.06.2017 05:50 14,8 C 92 % 1018,2 hPa 0,0 mm W 280 3,2 km/h (1 Bft)
01.06.2017 05:55 15,0 C 92 % 1018,2 hPa 0,0 mm W 280 1,6 km/h (1 Bft)
01.06.2017 06:00 15,2 C 92 % 1018,3 hPa 0,0 mm W 280 1,6 km/h (1 Bft)
01.06.2017 06:05 15,3 C 92 % 1018,3 hPa 0,0 mm W 280 0,0 km/h (0 Bft)
01.06.2017 06:10 15,4 C 92 % 1018,3 hPa 0,0 mm W 280 0,0 km/h (0 Bft)
01.06.2017 06:15 15,4 C 92 % 1018,3 hPa 0,0 mm W 280 0,0 km/h (0 Bft)
01.06.2017 06:20 15,4 C 92 % 1018,3 hPa 0,0 mm W 280 0,0 km/h (0 Bft)
01.06.2017 06:25 15,4 C 92 % 1018,4 hPa 0,0 mm W 280 0,0 km/h (0 Bft)
01.06.2017 06:30 15,4 C 92 % 1018,4 hPa 0,0 mm W 280 0,0 km/h (0 Bft)
01.06.2017 06:35 15,4 C 92 % 1018,4 hPa 0,0 mm W 280 0,0 km/h (0 Bft)
01.06.2017 06:40 15,7 C 92 % 1018,5 hPa 0,0 mm W 280 0,0 km/h (0 Bft)
01.06.2017 06:45 16,0 C 92 % 1018,5 hPa 0,0 mm W 280 0,0 km/h (0 Bft)
01.06.2017 06:50 16,2 C 92 % 1018,6 hPa 0,0 mm W 280 0,0 km/h (0 Bft)
01.06.2017 06:55 16,4 C 91 % 1018,5 hPa 0,0 mm W 280 1,6 km/h (1 Bft)
01.06.2017 07:00 16,5 C 91 % 1018,5 hPa 0,0 mm W 280 0,0 km/h (0 Bft)
01.06.2017 07:05 16,5 C 91 % 1018,5 hPa 0,0 mm W 280 0,0 km/h (0 Bft)
01.06.2017 07:10 16,7 C 91 % 1018,5 hPa 0,0 mm W 280 0,0 km/h (0 Bft)
01.06.2017 07:15 16,8 C 91 % 1018,6 hPa 0,0 mm W 280 0,0 km/h (0 Bft)
01.06.2017 07:20 17,2 C 91 % 1018,6 hPa 0,0 mm W 280 1,6 km/h (1 Bft)
01.06.2017 07:25 17,5 C 90 % 1018,6 hPa 0,0 mm W 280 1,6 km/h (1 Bft)
01.06.2017 07:30 17,7 C 89 % 1018,6 hPa 0,0 mm W 280 1,6 km/h (1 Bft)
01.06.2017 07:35 17,7 C 88 % 1018,7 hPa 0,0 mm W 280 1,6 km/h (1 Bft)
01.06.2017 07:40 17,8 C 88 % 1018,8 hPa 0,0 mm W 280 3,2 km/h (1 Bft)
01.06.2017 07:45 17,8 C 89 % 1018,7 hPa 0,0 mm W 280 0,0 km/h (0 Bft)
01.06.2017 07:50 17,8 C 88 % 1018,6 hPa 0,0 mm W 280 0,0 km/h (0 Bft)
01.06.2017 07:55 18,1 C 88 % 1018,7 hPa 0,0 mm W 280 3,2 km/h (1 Bft)
01.06.2017 08:00 18,1 C 88 % 1018,7 hPa 0,0 mm W 280 1,6 km/h (1 Bft)
01.06.2017 08:05 18,2 C 88 % 1018,7 hPa 0,0 mm W 280 3,2 km/h (1 Bft)
01.06.2017 08:10 18,1 C 88 % 1018,8 hPa 0,0 mm W 280 1,6 km/h (1 Bft)
01.06.2017 08:15 18,0 C 88 % 1018,8 hPa 0,0 mm W 276 1,6 km/h (1 Bft)
01.06.2017 08:20 17,9 C 88 % 1018,8 hPa 0,0 mm W 276 3,2 km/h (1 Bft)
01.06.2017 08:25 18,0 C 89 % 1018,9 hPa 0,0 mm W 276 1,6 km/h (1 Bft)
01.06.2017 08:30 18,1 C 89 % 1018,9 hPa 0,0 mm W-SW 253 3,2 km/h (1 Bft)
01.06.2017 08:35 18,1 C 89 % 1018,9 hPa 0,0 mm W-SW 250 3,2 km/h (1 Bft)
01.06.2017 08:40 18,2 C 89 % 1018,9 hPa 0,0 mm W-SW 251 3,2 km/h (1 Bft)
01.06.2017 08:45 18,2 C 88 % 1018,9 hPa 0,0 mm W-SW 251 3,2 km/h (1 Bft)
01.06.2017 08:50 18,3 C 89 % 1018,9 hPa 0,0 mm N-NO 32 4,8 km/h (1 Bft)
01.06.2017 08:55 18,4 C 88 % 1018,9 hPa 0,0 mm N-NO 32 4,8 km/h (1 Bft)
01.06.2017 09:00 18,7 C 88 % 1018,9 hPa 0,0 mm N-NO 32 1,6 km/h (1 Bft)
01.06.2017 09:05 18,6 C 87 % 1018,9 hPa 0,0 mm N-NO 32 1,6 km/h (1 Bft)
01.06.2017 09:10 18,7 C 88 % 1019,0 hPa 0,0 mm N-NO 32 1,6 km/h (1 Bft)
01.06.2017 09:15 19,1 C 86 % 1018,9 hPa 0,0 mm N-NO 32 1,6 km/h (1 Bft)
01.06.2017 09:20 19,4 C 86 % 1018,8 hPa 0,0 mm SO 143 4,8 km/h (1 Bft)
01.06.2017 09:25 19,3 C 85 % 1018,9 hPa 0,0 mm SO 143 4,8 km/h (1 Bft)
01.06.2017 09:30 19,3 C 87 % 1018,8 hPa 0,0 mm SO 142 3,2 km/h (1 Bft)
01.06.2017 09:35 19,5 C 86 % 1018,7 hPa 0,0 mm SO 142 3,2 km/h (1 Bft)
01.06.2017 09:40 21,0 C 85 % 1018,6 hPa 0,0 mm W 280 4,8 km/h (1 Bft)
01.06.2017 09:45 22,0 C 78 % 1018,7 hPa 0,0 mm W 278 3,2 km/h (1 Bft)
01.06.2017 09:50 22,0 C 77 % 1018,7 hPa 0,0 mm S-SW 209 4,8 km/h (1 Bft)
01.06.2017 09:55 21,5 C 78 % 1018,7 hPa 0,0 mm W 267 4,8 km/h (1 Bft)
01.06.2017 10:00 21,4 C 75 % 1018,7 hPa 0,0 mm W-SW 257 4,8 km/h (1 Bft)
01.06.2017 10:05 21,7 C 76 % 1018,7 hPa 0,0 mm NW 310 3,2 km/h (1 Bft)
01.06.2017 10:10 22,8 C 71 % 1018,7 hPa 0,0 mm W 261 8,0 km/h (2 Bft)
01.06.2017 10:15 23,1 C 71 % 1018,6 hPa 0,0 mm W-SW 250 8,0 km/h (2 Bft)
01.06.2017 10:20 23,3 C 69 % 1018,7 hPa 0,0 mm W 278 4,8 km/h (1 Bft)
01.06.2017 10:25 23,3 C 69 % 1018,7 hPa 0,0 mm W-NW 287 6,4 km/h (2 Bft)
01.06.2017 10:30 23,2 C 68 % 1018,7 hPa 0,0 mm W 269 6,4 km/h (2 Bft)
01.06.2017 10:35 23,7 C 66 % 1018,7 hPa 0,0 mm W 266 6,4 km/h (2 Bft)
01.06.2017 10:40 24,6 C 65 % 1018,7 hPa 0,0 mm W-NW 294 9,7 km/h (2 Bft)
01.06.2017 10:45 24,6 C 62 % 1018,8 hPa 0,0 mm W 271 9,7 km/h (2 Bft)
01.06.2017 10:50 24,9 C 61 % 1018,7 hPa 0,0 mm W 276 9,7 km/h (2 Bft)
01.06.2017 10:55 24,5 C 67 % 1018,8 hPa 0,0 mm W 277 9,7 km/h (2 Bft)
01.06.2017 11:00 24,8 C 63 % 1018,8 hPa 0,0 mm W 269 8,0 km/h (2 Bft)
01.06.2017 11:05 24,4 C 62 % 1018,8 hPa 0,0 mm W-SW 251 11,3 km/h (2 Bft)
01.06.2017 11:10 23,9 C 63 % 1018,8 hPa 0,0 mm W-NW 282 17,7 km/h (3 Bft)
01.06.2017 11:15 24,5 C 64 % 1018,8 hPa 0,0 mm W-NW 290 11,3 km/h (2 Bft)
01.06.2017 11:20 24,7 C 61 % 1018,8 hPa 0,0 mm NW 304 14,5 km/h (3 Bft)
01.06.2017 11:25 24,7 C 64 % 1018,8 hPa 0,0 mm W 268 9,7 km/h (2 Bft)
01.06.2017 11:30 25,1 C 61 % 1018,8 hPa 0,0 mm W-NW 292 11,3 km/h (2 Bft)
01.06.2017 11:35 24,9 C 61 % 1018,8 hPa 0,0 mm W 265 11,3 km/h (2 Bft)
01.06.2017 11:40 24,6 C 61 % 1018,8 hPa 0,0 mm W 263 12,9 km/h (3 Bft)
01.06.2017 11:45 24,2 C 65 % 1018,9 hPa 0,0 mm W 273 11,3 km/h (2 Bft)
01.06.2017 11:50 24,3 C 65 % 1018,8 hPa 0,0 mm W-NW 303 12,9 km/h (3 Bft)
01.06.2017 11:55 24,3 C 63 % 1018,8 hPa 0,0 mm W 261 12,9 km/h (3 Bft)
01.06.2017 12:00 24,2 C 65 % 1018,8 hPa 0,0 mm W-SW 250 9,7 km/h (2 Bft)
01.06.2017 12:05 23,8 C 63 % 1018,8 hPa 0,0 mm W-SW 257 14,5 km/h (3 Bft)
01.06.2017 12:10 23,3 C 68 % 1018,8 hPa 0,0 mm W 275 6,4 km/h (2 Bft)
01.06.2017 12:15 22,8 C 70 % 1018,8 hPa 0,0 mm W-NW 297 8,0 km/h (2 Bft)
01.06.2017 12:20 22,8 C 70 % 1018,8 hPa 0,0 mm W-NW 283 8,0 km/h (2 Bft)
01.06.2017 12:25 22,9 C 70 % 1018,8 hPa 0,0 mm W 281 9,7 km/h (2 Bft)
01.06.2017 12:30 23,2 C 69 % 1018,8 hPa 0,0 mm W 277 11,3 km/h (2 Bft)
01.06.2017 12:35 23,1 C 68 % 1018,8 hPa 0,0 mm W 269 11,3 km/h (2 Bft)
01.06.2017 12:40 23,0 C 67 % 1018,8 hPa 0,0 mm W-SW 254 11,3 km/h (2 Bft)
01.06.2017 12:45 23,1 C 67 % 1018,7 hPa 0,0 mm W-SW 238 12,9 km/h (3 Bft)
01.06.2017 12:50 23,3 C 65 % 1018,8 hPa 0,0 mm W-SW 257 12,9 km/h (3 Bft)
01.06.2017 12:55 23,3 C 70 % 1018,8 hPa 0,0 mm W-NW 293 8,0 km/h (2 Bft)
01.06.2017 13:00 23,3 C 69 % 1018,9 hPa 0,0 mm W-NW 294 11,3 km/h (2 Bft)
01.06.2017 13:05 23,2 C 71 % 1018,9 hPa 0,0 mm W 271 8,0 km/h (2 Bft)
01.06.2017 13:10 23,4 C 67 % 1019,0 hPa 0,0 mm W 280 14,5 km/h (3 Bft)
01.06.2017 13:15 22,7 C 71 % 1018,9 hPa 0,0 mm W-SW 254 12,9 km/h (3 Bft)
01.06.2017 13:20 22,4 C 70 % 1018,9 hPa 0,0 mm W-SW 256 12,9 km/h (3 Bft)
01.06.2017 13:25 22,3 C 72 % 1018,9 hPa 0,0 mm W 280 11,3 km/h (2 Bft)
01.06.2017 13:30 22,1 C 73 % 1018,9 hPa 0,0 mm W-NW 286 11,3 km/h (2 Bft)
01.06.2017 13:35 21,9 C 74 % 1018,8 hPa 0,0 mm W-NW 292 12,9 km/h (3 Bft)
01.06.2017 13:40 22,1 C 72 % 1018,8 hPa 0,0 mm W 271 12,9 km/h (3 Bft)
01.06.2017 13:45 22,3 C 71 % 1018,8 hPa 0,0 mm W 269 14,5 km/h (3 Bft)
01.06.2017 13:50 22,7 C 71 % 1018,8 hPa 0,0 mm W 265 16,1 km/h (3 Bft)
01.06.2017 13:55 22,4 C 72 % 1018,8 hPa 0,0 mm W 259 14,5 km/h (3 Bft)
01.06.2017 14:00 22,3 C 72 % 1018,9 hPa 0,0 mm W-NW 286 12,9 km/h (3 Bft)
01.06.2017 14:05 22,1 C 73 % 1018,9 hPa 0,0 mm W 263 11,3 km/h (2 Bft)
01.06.2017 14:10 21,9 C 76 % 1019,0 hPa 0,0 mm W 277 8,0 km/h (2 Bft)
01.06.2017 14:15 21,7 C 74 % 1018,9 hPa 0,0 mm W 264 6,4 km/h (2 Bft)
01.06.2017 14:20 21,6 C 76 % 1018,8 hPa 0,0 mm W 264 3,2 km/h (1 Bft)
01.06.2017 14:25 21,4 C 75 % 1018,7 hPa 0,0 mm W 264 1,6 km/h (1 Bft)
01.06.2017 14:30 21,4 C 75 % 1018,7 hPa 0,0 mm W 264 3,2 km/h (1 Bft)
01.06.2017 14:35 21,3 C 77 % 1018,7 hPa 0,0 mm NO 34 3,2 km/h (1 Bft)
01.06.2017 14:40 21,0 C 78 % 1018,6 hPa 0,0 mm NO 34 3,2 km/h (1 Bft)
01.06.2017 14:45 20,9 C 74 % 1018,6 hPa 0,0 mm NO 34 4,8 km/h (1 Bft)
01.06.2017 14:50 20,8 C 75 % 1018,6 hPa 0,0 mm NO 34 3,2 km/h (1 Bft)
01.06.2017 14:55 20,7 C 75 % 1018,6 hPa 0,0 mm NO 34 0,0 km/h (0 Bft)
01.06.2017 15:00 20,6 C 77 % 1018,6 hPa 0,0 mm NO 34 1,6 km/h (1 Bft)
01.06.2017 15:05 20,6 C 75 % 1018,6 hPa 0,0 mm O-NO 75 3,2 km/h (1 Bft)
01.06.2017 15:10 20,8 C 74 % 1018,6 hPa 0,0 mm O-NO 75 1,6 km/h (1 Bft)
01.06.2017 15:15 20,8 C 75 % 1018,6 hPa 0,0 mm O-NO 75 0,0 km/h (0 Bft)
01.06.2017 15:20 20,9 C 77 % 1018,4 hPa 0,0 mm O-NO 75 1,6 km/h (1 Bft)
01.06.2017 15:25 21,0 C 76 % 1018,5 hPa 0,0 mm O 84 3,2 km/h (1 Bft)
01.06.2017 15:30 21,6 C 73 % 1018,4 hPa 0,0 mm O 96 3,2 km/h (1 Bft)
01.06.2017 15:35 21,7 C 76 % 1018,3 hPa 0,0 mm O-SO 115 3,2 km/h (1 Bft)
01.06.2017 15:40 21,5 C 76 % 1018,3 hPa 0,0 mm SO 132 14,5 km/h (3 Bft)
01.06.2017 15:45 20,9 C 80 % 1018,3 hPa 0,0 mm O 80 11,3 km/h (2 Bft)
01.06.2017 15:50 20,5 C 81 % 1018,3 hPa 0,0 mm O-SO 123 12,9 km/h (3 Bft)
01.06.2017 15:55 20,3 C 82 % 1018,4 hPa 0,0 mm O-SO 113 11,3 km/h (2 Bft)
01.06.2017 16:00 20,3 C 82 % 1018,2 hPa 0,0 mm O-SO 107 8,0 km/h (2 Bft)
01.06.2017 16:05 20,8 C 81 % 1018,2 hPa 0,0 mm O 94 8,0 km/h (2 Bft)
01.06.2017 16:10 21,1 C 82 % 1018,0 hPa 0,0 mm O-NO 61 8,0 km/h (2 Bft)
01.06.2017 16:15 21,2 C 79 % 1018,1 hPa 0,0 mm O-SO 117 8,0 km/h (2 Bft)
01.06.2017 16:20 21,2 C 79 % 1018,0 hPa 0,0 mm O-SO 110 8,0 km/h (2 Bft)
01.06.2017 16:25 21,2 C 79 % 1018,0 hPa 0,0 mm O 94 9,7 km/h (2 Bft)
01.06.2017 16:30 21,5 C 79 % 1017,9 hPa 0,0 mm SO 132 6,4 km/h (2 Bft)
01.06.2017 16:35 21,4 C 78 % 1017,9 hPa 0,0 mm O-NO 75 8,0 km/h (2 Bft)
01.06.2017 16:40 21,4 C 80 % 1018,0 hPa 0,0 mm O-SO 113 8,0 km/h (2 Bft)
01.06.2017 16:45 21,4 C 79 % 1017,9 hPa 0,0 mm O 92 11,3 km/h (2 Bft)
01.06.2017 16:50 21,3 C 79 % 1017,9 hPa 0,0 mm O-NO 66 11,3 km/h (2 Bft)
01.06.2017 16:55 21,3 C 80 % 1017,9 hPa 0,0 mm O 99 11,3 km/h (2 Bft)
01.06.2017 17:00 21,4 C 79 % 1017,9 hPa 0,0 mm NO 51 11,3 km/h (2 Bft)
01.06.2017 17:05 21,3 C 78 % 1017,8 hPa 0,0 mm O-SO 109 9,7 km/h (2 Bft)
01.06.2017 17:10 21,3 C 80 % 1017,9 hPa 0,0 mm O 93 11,3 km/h (2 Bft)
01.06.2017 17:15 21,3 C 78 % 1017,9 hPa 0,0 mm O-NO 57 9,7 km/h (2 Bft)
01.06.2017 17:20 21,4 C 78 % 1017,9 hPa 0,0 mm O-NO 61 4,8 km/h (1 Bft)
01.06.2017 17:25 21,3 C 78 % 1017,9 hPa 0,0 mm O-NO 69 6,4 km/h (2 Bft)
01.06.2017 17:30 21,2 C 79 % 1017,8 hPa 0,0 mm O-NO 73 6,4 km/h (2 Bft)
01.06.2017 17:35 21,2 C 79 % 1017,8 hPa 0,0 mm O-SO 105 9,7 km/h (2 Bft)
01.06.2017 17:40 21,2 C 80 % 1017,7 hPa 0,0 mm O 80 9,7 km/h (2 Bft)
01.06.2017 17:45 21,0 C 82 % 1017,7 hPa 0,0 mm O 84 8,0 km/h (2 Bft)
01.06.2017 17:50 20,9 C 82 % 1017,6 hPa 0,0 mm O-NO 63 8,0 km/h (2 Bft)
01.06.2017 17:55 20,9 C 82 % 1017,6 hPa 0,0 mm O-SO 103 9,7 km/h (2 Bft)
01.06.2017 18:00 20,8 C 81 % 1017,6 hPa 0,0 mm N-NO 29 8,0 km/h (2 Bft)
01.06.2017 18:05 20,7 C 80 % 1017,6 hPa 0,0 mm O-NO 77 11,3 km/h (2 Bft)
01.06.2017 18:10 20,6 C 81 % 1017,6 hPa 0,0 mm O 86 8,0 km/h (2 Bft)
01.06.2017 18:15 20,6 C 82 % 1017,6 hPa 0,0 mm O-NO 57 9,7 km/h (2 Bft)
01.06.2017 18:20 20,4 C 80 % 1017,6 hPa 0,0 mm NO 55 9,7 km/h (2 Bft)
01.06.2017 18:25 20,3 C 81 % 1017,7 hPa 0,0 mm O-NO 69 9,7 km/h (2 Bft)
01.06.2017 18:30 20,2 C 81 % 1017,7 hPa 0,0 mm O-NO 78 11,3 km/h (2 Bft)
01.06.2017 18:35 20,1 C 83 % 1017,7 hPa 0,0 mm SO 142 8,0 km/h (2 Bft)
01.06.2017 18:40 19,9 C 83 % 1017,8 hPa 0,0 mm O 90 8,0 km/h (2 Bft)
01.06.2017 18:45 19,8 C 84 % 1017,8 hPa 0,0 mm O 92 8,0 km/h (2 Bft)
01.06.2017 18:50 19,8 C 84 % 1017,8 hPa 0,0 mm O 81 6,4 km/h (2 Bft)
01.06.2017 18:55 19,8 C 84 % 1017,9 hPa 0,0 mm NO 53 6,4 km/h (2 Bft)
01.06.2017 19:00 19,9 C 83 % 1018,0 hPa 0,0 mm O-NO 71 6,4 km/h (2 Bft)
01.06.2017 19:05 19,9 C 83 % 1018,0 hPa 0,0 mm O-SO 109 4,8 km/h (1 Bft)
01.06.2017 19:10 19,9 C 84 % 1018,0 hPa 0,0 mm O-SO 119 6,4 km/h (2 Bft)
01.06.2017 19:15 19,8 C 84 % 1018,1 hPa 0,0 mm O-SO 121 6,4 km/h (2 Bft)
01.06.2017 19:20 19,7 C 84 % 1018,1 hPa 0,0 mm SO 127 6,4 km/h (2 Bft)
01.06.2017 19:25 19,7 C 85 % 1018,0 hPa 0,0 mm SO 127 3,2 km/h (1 Bft)
01.06.2017 19:30 19,7 C 86 % 1018,0 hPa 0,0 mm SO 127 1,6 km/h (1 Bft)
01.06.2017 19:35 19,6 C 86 % 1018,1 hPa 0,0 mm O-SO 109 4,8 km/h (1 Bft)
01.06.2017 19:40 19,5 C 86 % 1018,1 hPa 0,0 mm O 86 3,2 km/h (1 Bft)
01.06.2017 19:45 19,4 C 86 % 1018,1 hPa 0,0 mm O 86 3,2 km/h (1 Bft)
01.06.2017 19:50 19,3 C 87 % 1018,1 hPa 0,0 mm O 86 3,2 km/h (1 Bft)
01.06.2017 19:55 19,3 C 88 % 1018,0 hPa 0,0 mm O 86 3,2 km/h (1 Bft)
01.06.2017 20:00 19,2 C 87 % 1018,1 hPa 0,0 mm O 86 3,2 km/h (1 Bft)
01.06.2017 20:05 18,9 C 87 % 1018,0 hPa 0,0 mm O 86 3,2 km/h (1 Bft)
01.06.2017 20:10 18,8 C 88 % 1018,2 hPa 0,0 mm O 86 3,2 km/h (1 Bft)
01.06.2017 20:15 18,8 C 88 % 1018,2 hPa 0,0 mm N-NO 14 4,8 km/h (1 Bft)
01.06.2017 20:20 18,7 C 88 % 1018,2 hPa 0,0 mm N-NO 16 4,8 km/h (1 Bft)
01.06.2017 20:25 18,5 C 89 % 1018,2 hPa 0,0 mm N-NO 16 1,6 km/h (1 Bft)
01.06.2017 20:30 18,4 C 89 % 1018,2 hPa 0,0 mm N-NO 16 0,0 km/h (0 Bft)
01.06.2017 20:35 18,3 C 90 % 1018,2 hPa 0,0 mm N-NO 16 3,2 km/h (1 Bft)
01.06.2017 20:40 18,3 C 90 % 1018,2 hPa 0,0 mm N-NO 16 3,2 km/h (1 Bft)
01.06.2017 20:45 18,3 C 90 % 1018,2 hPa 0,0 mm N-NO 16 1,6 km/h (1 Bft)
01.06.2017 20:50 18,2 C 90 % 1018,2 hPa 0,0 mm N-NO 16 0,0 km/h (0 Bft)
01.06.2017 20:55 18,1 C 90 % 1018,3 hPa 0,0 mm N-NO 16 0,0 km/h (0 Bft)
01.06.2017 21:00 18,0 C 91 % 1018,2 hPa 0,0 mm N-NO 16 0,0 km/h (0 Bft)
01.06.2017 21:05 17,9 C 91 % 1018,2 hPa 0,0 mm N-NO 16 0,0 km/h (0 Bft)
01.06.2017 21:10 17,9 C 91 % 1018,2 hPa 0,0 mm N-NO 16 0,0 km/h (0 Bft)
01.06.2017 21:15 17,7 C 91 % 1018,3 hPa 0,0 mm N-NO 16 3,2 km/h (1 Bft)
01.06.2017 21:20 17,7 C 91 % 1018,3 hPa 0,0 mm N-NO 16 1,6 km/h (1 Bft)
01.06.2017 21:25 17,5 C 91 % 1018,2 hPa 0,0 mm N-NO 16 0,0 km/h (0 Bft)
01.06.2017 21:30 17,3 C 91 % 1018,3 hPa 0,0 mm N-NO 16 0,0 km/h (0 Bft)
01.06.2017 21:35 17,2 C 91 % 1018,3 hPa 0,0 mm N-NO 16 0,0 km/h (0 Bft)
01.06.2017 21:40 17,2 C 91 % 1018,4 hPa 0,0 mm N-NO 16 1,6 km/h (1 Bft)
01.06.2017 21:45 17,1 C 91 % 1018,4 hPa 0,0 mm N-NO 16 1,6 km/h (1 Bft)
01.06.2017 21:50 17,0 C 91 % 1018,4 hPa 0,0 mm N-NO 16 0,0 km/h (0 Bft)
01.06.2017 21:55 16,8 C 92 % 1018,5 hPa 0,0 mm N-NO 16 0,0 km/h (0 Bft)
01.06.2017 22:00 16,8 C 92 % 1018,5 hPa 0,0 mm N-NO 16 0,0 km/h (0 Bft)
01.06.2017 22:05 16,7 C 92 % 1018,5 hPa 0,0 mm N-NO 16 0,0 km/h (0 Bft)
01.06.2017 22:10 16,7 C 92 % 1018,5 hPa 0,0 mm N-NO 16 0,0 km/h (0 Bft)
01.06.2017 22:15 16,7 C 92 % 1018,5 hPa 0,0 mm N-NO 16 0,0 km/h (0 Bft)
01.06.2017 22:20 16,7 C 92 % 1018,5 hPa 0,0 mm N-NO 16 0,0 km/h (0 Bft)
01.06.2017 22:25 16,7 C 92 % 1018,5 hPa 0,0 mm N-NO 16 0,0 km/h (0 Bft)
01.06.2017 22:30 16,8 C 92 % 1018,5 hPa 0,0 mm N-NO 12 3,2 km/h (1 Bft)
01.06.2017 22:35 16,8 C 92 % 1018,6 hPa 0,0 mm N-NW 346 3,2 km/h (1 Bft)
01.06.2017 22:40 16,8 C 92 % 1018,5 hPa 0,0 mm N-NW 346 0,0 km/h (0 Bft)
01.06.2017 22:45 16,7 C 92 % 1018,5 hPa 0,0 mm N-NW 346 0,0 km/h (0 Bft)
01.06.2017 22:50 16,4 C 92 % 1018,6 hPa 0,0 mm N-NW 346 0,0 km/h (0 Bft)
01.06.2017 22:55 16,3 C 92 % 1018,5 hPa 0,0 mm N-NW 346 0,0 km/h (0 Bft)
01.06.2017 23:00 16,3 C 92 % 1018,5 hPa 0,0 mm N-NW 346 1,6 km/h (1 Bft)
01.06.2017 23:05 16,3 C 92 % 1018,6 hPa 0,0 mm N-NW 346 0,0 km/h (0 Bft)
01.06.2017 23:10 16,3 C 92 % 1018,5 hPa 0,0 mm N-NW 346 0,0 km/h (0 Bft)
01.06.2017 23:15 16,3 C 92 % 1018,5 hPa 0,0 mm N-NW 346 0,0 km/h (0 Bft)
01.06.2017 23:20 16,3 C 92 % 1018,5 hPa 0,0 mm N-NW 346 0,0 km/h (0 Bft)
01.06.2017 23:25 16,3 C 92 % 1018,5 hPa 0,0 mm N-NW 346 0,0 km/h (0 Bft)
01.06.2017 23:30 16,2 C 92 % 1018,6 hPa 0,0 mm N-NW 346 0,0 km/h (0 Bft)
01.06.2017 23:35 16,2 C 92 % 1018,6 hPa 0,0 mm N-NW 346 0,0 km/h (0 Bft)
01.06.2017 23:40 16,1 C 92 % 1018,6 hPa 0,0 mm N-NW 346 0,0 km/h (0 Bft)
01.06.2017 23:45 15,9 C 92 % 1018,6 hPa 0,0 mm N-NW 346 0,0 km/h (0 Bft)
01.06.2017 23:50 15,9 C 92 % 1018,6 hPa 0,0 mm N-NW 346 0,0 km/h (0 Bft)
01.06.2017 23:55 15,8 C 92 % 1018,5 hPa 0,0 mm N-NW 346 0,0 km/h (0 Bft)
_ Min-Zeit 05:45 10:50 17:50 - - - 00:10
Minimum _ 14,6 C 61 % 1017,6 hPa - - - 0,0 km/h (0 Bft)
_ Max-Zeit 11:35 04:25 09:10 00:00 - - 11:10
Maximum _ 25,2 C 92 % 1019,0 hPa 0,0 mm - - 17,7 km/h
W-SW (3 Bft)
Durchschnitt _ 19,0 C 84 % 1018,3 hPa #0,0 mm W - 4,4 km/h (1 Bft)